[[{"header":{"parameterUnit":"m.s-1","parameterCategory":1,"la1":30.2991,"la2":30.254,"lo1":-89.0895,"lo2":-89.0444,"dy":0.0017,"dx":0.0017,"nx":28,"ny":28,"refTime":"2024-07-08T09:00:00:Z","depth":0,"parameterNumber":2,"parameterNumberName":"U-component_of_WINDS"},"data":[0,0,0,0,0,0,0,0,0,0,0,0,0,0,0,0,0,0,0,0,0,0,0,0,0,0,0,0,0,0,0,0,0,0,0,0,0,0,0,0,0,0,0,0,0,0,0,0,0,0,0,0,0,0,0,0,0,0,5.4516,5.4518,0,5.4729,5.4731,5.4733,5.4685,5.4681,5.4677,5.4673,5.4892,5.4902,5.4911,0,0,0,0,0,0,0,0,0,0,0,0,0,5.4067,5.4075,5.4516,5.4518,5.4521,5.4728,5.4731,5.4734,5.4685,5.468,5.4676,5.4671,5.4889,5.4901,5.4912,0,0,0,0,0,0,0,0,0,0,0,0,0,5.4269,5.4078,5.4515,5.4522,5.4524,5.4728,5.4731,5.4735,5.4686,5.468,5.4674,5.4669,5.4885,5.4899,5.4914,5.5124,0,0,5.4958,5.4964,0,0,0,0,0,0,0,0,5.4258,5.4285,5.4518,5.4522,5.4525,5.4674,5.4653,5.4865,5.4688,5.4625,5.4673,5.4666,5.4825,5.4844,5.4897,5.5134,5.5144,5.4959,5.4968,5.4974,5.4978,0,0,0,0,0,0,0,5.4244,5.4276,5.46,5.4521,5.4526,5.4514,5.4536,5.4693,5.4756,5.463,5.4627,5.4653,5.4825,5.4883,5.4902,5.5147,5.4959,5.4971,5.498,5.4986,5.5565,5.5572,0,0,0,0,0,0,5.4227,5.4265,5.4593,5.4606,5.4373,5.4527,5.4551,5.4632,5.4754,5.4767,5.4658,5.465,5.4862,5.4885,5.4909,5.5161,5.4974,5.4987,5.4996,5.5559,5.5567,5.5574,0,0,0,0,0,0,5.4217,5.4256,5.4585,5.4435,5.4476,5.4541,5.4632,5.464,5.4697,5.4775,5.4786,5.4705,5.4858,5.4889,5.507,5.5168,5.4994,5.5007,5.5551,5.5561,5.557,5.5669,0,0,0,0,0,0,5.4204,5.4253,5.4334,5.4437,5.4484,5.4742,5.4638,5.4648,5.4722,5.4714,5.4823,5.4835,5.4855,5.5049,5.5085,5.5185,5.5018,5.5542,5.5555,5.5567,5.5657,5.5681,5.5702,0,0,0,0,0,5.4189,5.4354,5.4338,5.4378,5.4586,5.4748,5.4775,5.4794,5.473,5.4812,5.4861,5.4832,5.5152,5.5068,5.5108,5.5214,5.5536,5.5552,5.5566,5.5647,5.5676,5.5701,0,0,0,0,0,0,5.4262,5.4368,5.4351,5.4555,5.4643,5.4739,5.4843,5.4825,5.4933,5.4921,5.4941,5.4966,5.515,5.5201,5.5105,5.5423,5.5335,5.5359,5.5383,5.5411,5.5433,5.5416,5.503,0,0,0,0,0,5.4302,5.4424,5.451,5.4682,5.4727,5.4777,5.4849,5.4856,5.4948,5.4985,5.5048,5.5138,5.5259,5.5338,5.5454,5.5665,5.5687,5.5757,5.578,5.5797,5.5817,5.593,5.5961,5.5624,5.5624,5.5623,0,0,5.4386,5.4459,5.4535,5.4699,5.4767,5.4893,5.4809,5.4946,5.504,5.5006,5.518,5.523,5.5332,5.5528,5.5618,5.5576,5.5916,5.5817,5.583,5.5841,5.5949,5.598,5.6009,5.5634,5.5632,5.5631,0,0,5.4602,5.467,5.4819,5.489,5.4994,5.5027,5.5062,5.5162,5.5193,5.5368,5.5344,5.5456,5.5665,5.5737,5.5802,5.6044,5.602,5.6082,5.6197,5.6307,5.6333,5.6357,5.6441,5.6471,5.6101,5.6102,5.6102,0,5.4692,5.4881,5.4898,5.5037,5.5109,5.5084,5.5234,5.5302,5.5439,5.5489,5.544,5.57,5.5767,5.5978,5.6037,5.6091,5.6131,5.6068,5.6328,5.6352,5.6374,5.6454,5.6486,5.6108,5.6108,5.6107,5.6106,0,5.4986,5.5117,5.5225,5.5357,5.5441,5.5586,5.5624,5.5708,5.5707,5.5745,5.5922,5.6002,5.6132,5.6183,5.6186,5.6395,5.6365,5.6323,5.6234,5.6413,5.6488,5.6519,5.6118,5.6115,5.6113,5.6112,0,0,5.5254,5.5393,5.5432,5.549,5.5603,5.5705,5.5848,5.5974,5.6044,5.614,5.6259,5.6435,5.6395,5.6468,5.6478,5.6575,5.6758,5.6519,5.6522,5.6559,5.6991,5.7021,5.7056,5.6743,5.6749,5.6754,5.6982,0,5.5479,5.5729,5.5748,5.5973,5.6093,5.607,5.6194,5.6277,5.6315,5.6423,5.6466,5.6589,5.6529,5.6572,5.6667,5.6716,5.6845,5.67,5.6853,5.6858,5.6825,5.7096,5.7129,5.734,5.7012,5.7017,5.702,0,5.5774,5.5876,5.6113,5.6207,5.6258,5.6369,5.6485,5.6589,5.6682,5.6703,5.6784,5.678,5.6926,5.6833,5.7033,5.6934,5.6998,5.7032,5.704,5.7053,5.6948,5.7115,5.7408,5.7438,5.7068,5.7064,5.706,0,5.5942,5.614,5.6307,5.6358,5.6473,5.655,5.6602,5.6689,5.6763,5.6865,5.6912,5.7031,5.7095,5.7186,5.7214,5.7145,5.7413,5.7323,5.7433,5.7432,5.7489,5.7485,5.7794,5.7534,5.7534,5.7533,5.7533,0,5.6189,5.6335,5.6383,5.6486,5.6647,5.6668,5.6828,5.6874,5.6952,5.7062,5.705,5.7154,5.7186,5.7295,5.7319,5.7479,5.7509,5.7529,5.7533,5.7529,5.7526,5.757,5.7555,5.7542,5.754,5.7538,5.7537,0,5.6404,5.6443,5.6623,5.6716,5.6743,5.6857,5.6937,5.7035,5.7071,5.7211,5.7245,5.7303,5.7431,5.7468,5.7623,5.7638,5.7825,5.7817,5.7794,5.7793,5.79,5.7888,5.8246,5.8293,5.8005,5.8008,5.801,0,5.6558,5.6669,5.6774,5.6846,5.69,5.7018,5.7093,5.7118,5.7196,5.7309,5.7393,5.7519,5.7621,5.7827,5.7882,5.8,5.7993,5.811,5.8011,5.8002,5.7992,5.7984,5.7994,5.8128,5.8131,5.8134,5.8136,0,5.6827,5.684,5.6948,5.7063,5.7152,5.7244,5.7332,5.7393,5.743,5.7518,5.7648,5.7727,5.7884,5.8009,5.8128,5.818,5.8164,5.8167,5.8198,5.8194,5.8174,5.8184,5.7842,5.8158,5.8156,5.8154,5.8153,5.8152,5.7014,5.711,5.7198,5.7319,5.7387,5.747,5.7565,5.7613,5.7722,5.785,5.7858,5.7999,5.8087,5.8245,5.8304,5.8413,5.8379,5.8425,5.8436,5.8446,5.8454,5.8159,5.8436,5.8435,5.8435,5.8434,5.8434,0,5.7279,5.7334,5.7445,5.7568,5.7662,5.7638,5.7734,5.7815,5.7938,5.8022,5.8121,5.827,5.8391,5.8455,5.8575,5.865,5.8646,5.8681,5.8674,5.8686,5.8479,5.8439,5.8682,5.8682,5.8682,5.8682,5.8682,5.8682,5.7428,5.7589,5.7613,5.7807,5.7861,5.7998,5.8054,5.813,5.8196,5.8362,5.8461,5.8502,5.8578,5.8703,5.8812,5.8828,5.8871,5.891,5.8922,5.8727,5.8701,5.8677,5.8639,5.892,5.892,5.9119,5.9121,5.9122]},{"header":{"parameterUnit":"m.s-1","parameterCategory":1,"la1":30.2991,"la2":30.254,"lo1":-89.0895,"lo2":-89.0444,"dy":0.0017,"dx":0.0017,"nx":28,"ny":28,"refTime":"2024-07-08T09:00:00:Z","depth":0,"parameterNumber":3,"parameterNumberName":"V-component_of_WINDS"},"data":[0,0,0,0,0,0,0,0,0,0,0,0,0,0,0,0,0,0,0,0,0,0,0,0,0,0,0,0,0,0,0,0,0,0,0,0,0,0,0,0,0,0,0,0,0,0,0,0,0,0,0,0,0,0,0,0,0,0,3.6341,3.6342,0,3.6512,3.6514,3.6516,3.6489,3.6486,3.6483,3.648,3.6658,3.6665,3.6673,0,0,0,0,0,0,0,0,0,0,0,0,0,3.5989,3.5995,3.634,3.6342,3.6345,3.6512,3.6514,3.6516,3.6489,3.6486,3.6482,3.6479,3.6655,3.6664,3.6673,0,0,0,0,0,0,0,0,0,0,0,0,0,3.6149,3.5997,3.634,3.6351,3.6354,3.6511,3.6514,3.6517,3.649,3.6486,3.6481,3.6477,3.6653,3.6663,3.6674,3.6832,0,0,3.6709,3.6714,0,0,0,0,0,0,0,0,3.614,3.6162,3.6347,3.6351,3.6354,3.6474,3.6455,3.6623,3.6491,3.6439,3.648,3.6475,3.6601,3.6616,3.6658,3.684,3.6848,3.671,3.6717,3.6721,3.6725,0,0,0,0,0,0,0,3.6129,3.6154,3.6408,3.635,3.6354,3.6347,3.6365,3.6487,3.6542,3.6443,3.6441,3.6462,3.6602,3.6647,3.6662,3.6851,3.6709,3.6719,3.6726,3.6731,3.7168,3.7173,0,0,0,0,0,0,3.6115,3.6145,3.6403,3.6413,3.6234,3.6357,3.6377,3.644,3.6541,3.6552,3.6465,3.646,3.663,3.6649,3.6668,3.6857,3.6721,3.6732,3.6738,3.7163,3.7169,3.7174,0,0,0,0,0,0,3.6107,3.6138,3.6396,3.6279,3.6311,3.6368,3.6439,3.6446,3.6491,3.6558,3.6568,3.6502,3.6627,3.6652,3.6791,3.6863,3.6737,3.6747,3.7157,3.7165,3.7172,3.7238,0,0,0,0,0,0,3.6097,3.6135,3.6196,3.6281,3.6318,3.6516,3.6444,3.6453,3.6511,3.6505,3.6595,3.6605,3.6626,3.6774,3.6802,3.6876,3.6756,3.7151,3.7161,3.7169,3.723,3.7247,3.7262,0,0,0,0,0,3.6085,3.6209,3.6199,3.6231,3.6395,3.6521,3.6542,3.6562,3.6517,3.6578,3.662,3.6602,3.685,3.6788,3.682,3.6898,3.7147,3.7158,3.7169,3.7223,3.7244,3.7261,0,0,0,0,0,0,3.6133,3.6221,3.6211,3.6366,3.6436,3.6516,3.6594,3.6584,3.6669,3.6661,3.6683,3.6703,3.6843,3.6885,3.6814,3.7055,3.6992,3.701,3.7023,3.7043,3.7059,3.7046,3.6765,0,0,0,0,0,3.6162,3.6256,3.6327,3.6458,3.6493,3.6537,3.6593,3.6602,3.6676,3.6706,3.6758,3.683,3.6924,3.6986,3.7076,3.7235,3.7254,3.7305,3.732,3.7333,3.7348,3.7433,3.7456,3.7211,3.721,3.721,0,0,3.6222,3.6282,3.634,3.6469,3.6524,3.6621,3.6563,3.6669,3.674,3.6722,3.6855,3.6896,3.6978,3.7127,3.7195,3.7166,3.742,3.7347,3.7357,3.7365,3.7447,3.747,3.7491,3.7218,3.7217,3.7215,0,0,3.6382,3.6437,3.655,3.6606,3.6689,3.6718,3.6744,3.6826,3.6851,3.6985,3.6973,3.7058,3.722,3.7278,3.7329,3.7507,3.7493,3.7536,3.7619,3.7701,3.7721,3.7738,3.78,3.7822,3.755,3.7551,3.7551,0,3.6447,3.6592,3.661,3.6716,3.6772,3.6758,3.6873,3.6926,3.7035,3.7074,3.7039,3.724,3.7295,3.7456,3.7498,3.7541,3.7571,3.7526,3.7716,3.7734,3.775,3.781,3.7833,3.7555,3.7555,3.7554,3.7554,0,3.6667,3.6768,3.6849,3.6953,3.7019,3.7129,3.7162,3.7226,3.7229,3.726,3.7396,3.746,3.7562,3.76,3.7605,3.7762,3.7741,3.7711,3.7649,3.7778,3.7834,3.7857,3.7562,3.756,3.7559,3.7558,0,0,3.6865,3.6974,3.7004,3.705,3.7139,3.7218,3.7326,3.7424,3.7478,3.7553,3.7644,3.7779,3.7751,3.7809,3.7819,3.7892,3.8026,3.7853,3.7855,3.7882,3.8201,3.8222,3.8249,3.8017,3.8022,3.8025,3.8194,0,3.7032,3.7223,3.724,3.7411,3.7504,3.749,3.7584,3.7649,3.768,3.7763,3.7798,3.7893,3.785,3.7884,3.7955,3.7995,3.8091,3.7983,3.8102,3.8106,3.8081,3.8278,3.8302,3.8458,3.8216,3.822,3.8222,0,3.7254,3.7333,3.7513,3.7587,3.7626,3.7711,3.78,3.788,3.7952,3.797,3.8032,3.8032,3.8143,3.8075,3.8227,3.8154,3.8203,3.8229,3.8236,3.8248,3.8172,3.8295,3.8509,3.8532,3.8257,3.8255,3.8252,0,3.7378,3.753,3.7657,3.7696,3.7786,3.7845,3.7886,3.7953,3.801,3.8089,3.8126,3.8217,3.8267,3.8337,3.8361,3.831,3.8511,3.8446,3.8528,3.8528,3.8572,3.8569,3.8796,3.8604,3.8603,3.8603,3.8603,0,3.7563,3.7674,3.7713,3.7791,3.7914,3.7932,3.8053,3.809,3.815,3.8234,3.8228,3.8307,3.8334,3.8418,3.8437,3.8559,3.8582,3.8598,3.8602,3.8599,3.8597,3.8632,3.8622,3.8609,3.8608,3.8607,3.8606,0,3.7723,3.7755,3.7891,3.7964,3.7985,3.8072,3.8134,3.8209,3.8237,3.8344,3.837,3.8416,3.8514,3.8544,3.8663,3.8675,3.8817,3.8812,3.8793,3.8793,3.8873,3.8865,3.9131,3.9166,3.8951,3.8953,3.8955,0,3.784,3.7924,3.8005,3.806,3.8102,3.8192,3.8249,3.827,3.833,3.8416,3.848,3.8577,3.8655,3.8811,3.8855,3.8945,3.8941,3.9028,3.8955,3.8948,3.8942,3.8936,3.8944,3.9042,3.9044,3.9046,3.9048,0,3.8042,3.8052,3.8135,3.8223,3.8291,3.8361,3.8429,3.8475,3.8505,3.8572,3.8671,3.8732,3.8851,3.8946,3.9037,3.9078,3.9068,3.907,3.9093,3.9091,3.9076,3.9084,3.883,3.9064,3.9062,3.9061,3.906,3.906,3.8183,3.8257,3.8324,3.8416,3.8468,3.8531,3.8604,3.8641,3.8724,3.8822,3.8828,3.8935,3.9003,3.9123,3.9168,3.9252,3.9227,3.9261,3.927,3.9278,3.9284,3.9063,3.9268,3.9268,3.9268,3.9267,3.9267,0,3.8385,3.8426,3.8511,3.8604,3.8676,3.8658,3.8732,3.8793,3.8887,3.895,3.9026,3.9139,3.923,3.928,3.9371,3.9428,3.9426,3.9451,3.9447,3.9457,3.9302,3.9272,3.9452,3.9452,3.9452,3.9452,3.9451,3.9451,3.8498,3.862,3.8638,3.8785,3.8827,3.8931,3.8974,3.9031,3.9081,3.9207,3.9282,3.9314,3.9371,3.9466,3.9549,3.9561,3.9594,3.9623,3.9632,3.9487,3.9468,3.945,3.9422,3.963,3.963,3.978,3.9781,3.9782]}]]